Masbate, Philippines

4:07 PM +08 on December 11, 2017 (GMT +0800)
Mactan-Cebu International

Weather History for RPVM - May, 2014

Change the Weather History Date:

Wednesday, May 7, 2014

  Actual Average Record
Temperature  
Mean Temperature 86 °F -  
Max Temperature 93 °F 88 °F 95 °F (2017)
Min Temperature 79 °F 78 °F 75 °F (2011)
Cooling Degree Days 21    
Growing Degree Days 36 (Base 50)    
Moisture  
Dew Point 78 °F    
Average Humidity 78    
Maximum Humidity 94    
Minimum Humidity 62    
Precipitation  
Precipitation 0.00 in - - ()
Sea Level Pressure  
Sea Level Pressure 29.84 in    
Wind  
Wind Speed 6 mph ()    
Max Wind Speed 16 mph    
Max Gust Speed -    
Visibility 8.4 miles    
Events      
Averages and records for this station are not official NWS values.
T = Trace of Precipitation, MM = Missing Value Source: Averaged Metar Reports

Daily Weather History Graph

Daily Weather History Graph

Search for Another Location

Airport or City:

Trip Planner

Search our weather history database for the weather conditions in past years. The results will help you decide how hot, cold, wet, or windy it might be!

Date:

Astronomy

May. 07, 2014 Rise Set
Actual Time 5:23 AM +08 6:00 PM +08
Civil Twilight 5:01 AM +08 6:23 PM +08
Nautical Twilight 4:35 AM +08 6:49 PM +08
Astronomical Twilight 4:08 AM +08 7:15 PM +08
Moon 11:47 AM +08 (5/7) No Moon Set
Length of Visible Light 13h 21m
Length of Day
12h 37m
Waxing Crescent, 50% of the Moon is Illuminated
May 7
Waxing Crescent
May 15
Full
May 21
Last Quarter
May 29
New
Jun 6
First Quarter

Hourly Weather History & Observations

Time (+08) Temp. Heat Index Dew Point Humidity Pressure Visibility Wind Dir Wind Speed Gust Speed Precip Events Conditions
12:00 AM 84.2 °F 96.1 °F 78.8 °F 84% 29.86 in 6.2 mi NNE 6.9 mph - N/A   Scattered Clouds
1:00 AM 82.4 °F 90.9 °F 77.0 °F 84% 29.86 in 6.2 mi NNW 4.6 mph - N/A   Scattered Clouds
2:00 AM 82 °F - 78 °F 84% 29.84 in 11 mi ENE 2.2 mph - -   Scattered Clouds
2:00 AM 80.6 °F 87.1 °F 77.0 °F 89% 29.83 in 6.2 mi NNW 4.6 mph - N/A   Scattered Clouds
3:00 AM 80.6 °F 88.1 °F 78.8 °F 94% 29.83 in 6.2 mi NW 4.6 mph - N/A   Mostly Cloudy
5:00 AM 81 °F - 78 °F 89% 29.83 in 11 mi Calm Calm - -   Scattered Clouds
5:00 AM 80.6 °F 88.1 °F 78.8 °F 94% 29.83 in 6.2 mi North 2.3 mph - N/A   Scattered Clouds
6:00 AM 80.6 °F 88.1 °F 78.8 °F 94% 29.86 in 6.2 mi NNW 4.6 mph - N/A   Mostly Cloudy
7:00 AM 84.2 °F 96.1 °F 78.8 °F 84% 29.86 in 6.2 mi North 4.6 mph - N/A   Scattered Clouds
8:00 AM 84 °F - 78 °F 78% 29.92 in 16 mi Calm Calm - -   Scattered Clouds
8:00 AM 87.8 °F 102.5 °F 78.8 °F 75% 29.89 in 6.2 mi NE 9.2 mph - N/A   Scattered Clouds
9:00 AM 87.8 °F 102.5 °F 78.8 °F 75% 29.89 in 6.2 mi NE 9.2 mph - N/A   Partly Cloudy
10:00 AM 89.6 °F 104.7 °F 78.8 °F 70% 29.89 in 6.2 mi NNE 9.2 mph - N/A   Partly Cloudy
11:00 AM 88 °F - 80 °F 71% 29.86 in 19 mi ESE 4.5 mph - -   Scattered Clouds
11:00 AM 91.4 °F 107.2 °F 78.8 °F 66% 29.86 in 6.2 mi NE 11.5 mph - N/A   Partly Cloudy
12:00 PM 91.4 °F 105.1 °F 77.0 °F 63% 29.83 in 6.2 mi ENE 13.8 mph - N/A   Partly Cloudy
1:00 PM 91.4 °F 105.1 °F 77.0 °F 63% 29.80 in 6.2 mi NE 16.1 mph - N/A   Partly Cloudy
2:00 PM 92 °F - 81 °F 64% 29.81 in 19 mi ESE 6.7 mph - -  
2:00 PM 91.4 °F 105.1 °F 77.0 °F 63% 29.77 in 6.2 mi NE 9.2 mph - N/A   Partly Cloudy
4:00 PM 89.6 °F 99.8 °F 75.2 °F 62% 29.77 in 6.2 mi NNE 10.4 mph - N/A   Partly Cloudy
5:00 PM 86 °F - 80 °F 78% 29.80 in 16 mi SE 4.5 mph - -   Partly Cloudy
5:00 PM 87.8 °F 99.7 °F 77.0 °F 70% 29.77 in 6.2 mi NNE 9.2 mph - N/A   Partly Cloudy
6:00 PM 91.4 °F 105.1 °F 77.0 °F 63% 29.80 in 6.2 mi NNE 9.2 mph - N/A   Scattered Clouds
7:00 PM 84.2 °F 96.1 °F 78.8 °F 84% 29.83 in 6.2 mi NNE 8.1 mph - N/A   Scattered Clouds
8:00 PM 84 °F - 80 °F 83% 29.84 in 12 mi ESE 2.2 mph - -   Scattered Clouds
8:00 PM 86.0 °F 99.3 °F 78.8 °F 79% 29.83 in 6.2 mi NNE 11.5 mph - N/A   Scattered Clouds
9:00 PM 86.0 °F 99.3 °F 78.8 °F 79% 29.86 in 6.2 mi NNE 11.5 mph - N/A   Scattered Clouds
10:00 PM 86.0 °F 99.3 °F 78.8 °F 79% 29.86 in 6.2 mi NE 6.9 mph - N/A   Scattered Clouds
11:00 PM 83 °F - 79 °F 85% 29.88 in 11 mi Calm Calm - -   Partly Cloudy
11:00 PM 84.2 °F 94.1 °F 77.0 °F 79% 29.86 in 6.2 mi East 6.9 mph - N/A   Scattered Clouds